This is the latest recevied weather packets stored in our database for station/object KB1ZFK. If no packets are shown the sender has not sent any weather packets the latest 10 day(s).
| Time | Temp. | Humidity | Pressure | Rain* | Wind** | Luminosity | Snow |
|---|---|---|---|---|---|---|---|
| 1778112407 | 14.44° C | 96% | 1004.8 hPa | 0 mm | - | 0 W/m² | - |
| 1778112102 | 14.44° C | 96% | 1004.7 hPa | 0 mm | - | 0 W/m² | - |
| 1778111800 | 14.44° C | 96% | 1004.7 hPa | 0 mm | - | 0 W/m² | - |
| 1778111500 | 14.44° C | 96% | 1004.7 hPa | 0 mm | - | 0 W/m² | - |
| 1778111197 | 14.44° C | 96% | 1004.6 hPa | 0 mm | - | 0 W/m² | - |
| 1778110894 | 14.44° C | 96% | 1004.5 hPa | 0 mm | - | 0 W/m² | - |
| 1778110591 | 14.44° C | 96% | 1004.4 hPa | 0 mm | - | 0 W/m² | - |
| 1778110288 | 14.44° C | 95% | 1004.6 hPa | 0 mm | - | 1 W/m² | - |
| 1778109984 | 14.44° C | 95% | 1004.4 hPa | 0 mm | - | 2 W/m² | - |
| 1778109680 | 14.44° C | 95% | 1004.7 hPa | 0 mm | - | 2 W/m² | - |
| 1778109377 | 14.44° C | 95% | 1004.6 hPa | 0 mm | - | 3 W/m² | - |
| 1778109076 | 14.44° C | 95% | 1004.7 hPa | 0 mm | - | 4 W/m² | - |
| 1778108772 | 14.44° C | 95% | 1004.4 hPa | 0 mm | - | 7 W/m² | - |
| 1778108469 | 14.44° C | 95% | 1004.5 hPa | 0 mm | - | 8 W/m² | - |
| 1778108165 | 14.44° C | 95% | 1004.9 hPa | 0 mm | - | 4 W/m² | - |
| 1778107862 | 14.44° C | 95% | 1004.8 hPa | 0 mm | - | 3 W/m² | - |
| 1778107559 | 14.44° C | 95% | 1004.7 hPa | 0 mm | - | 4 W/m² | - |
| 1778107255 | 14.44° C | 95% | 1004.6 hPa | 0 mm | - | 6 W/m² | - |
| 1778106951 | 14.44° C | 95% | 1004.8 hPa | 0 mm | - | 6 W/m² | - |
| 1778106648 | 14.44° C | 95% | 1004.8 hPa | 0 mm | - | 4 W/m² | - |
| 1778106345 | 14.44° C | 95% | 1004.8 hPa | 0 mm | - | 8 W/m² | - |
| 1778106041 | 14.44° C | 95% | 1004.8 hPa | 0 mm | - | 6 W/m² | - |
| 1778105739 | 15° C | 95% | 1005 hPa | 0 mm | - | 8 W/m² | - |
| 1778105437 | 15° C | 95% | 1004.9 hPa | 0 mm | - | 19 W/m² | - |
| 1778105132 | 15° C | 95% | 1004.9 hPa | 0 mm | - | 15 W/m² | - |
* Rain latest hour (hover to see other rain measurements)
** Current wind speed in m/s (hover to see current wind gust speed)